Location: *
(58.4167°N, 22.5000°E)
Time: 17:00:50
(UTC+00:00)

Cosmos 1975 - Pass Details

Date: 22 September 2019
Orbit: 543 x 561 km, 82.5° (Epoch: 21 October)

Event Time Altitude Azimuth Distance (km) Brightness Sun altitude
Rises 17:18:39 0° 208° (SSW) 2,707 6.6 -7.1°
Reaches altitude 10° 17:20:52 10° 214° (SW) 1,820 5.8 -7.4°
Maximum altitude 17:24:44 47° 289° (WNW) 737 4.1 -7.8°
Drops below altitude 10° 17:28:40 10° 5° (N) 1,843 5.6 -8.3°
Sets 17:30:55 0° 11° (NNE) 2,745 6.4 -8.6°
